www.pogodaiklimat.ru

Погода и климат >> Архив погоды >> Казахстан >> Жангизтобе


ПОГОДА в Жангизтобе

  • Прогноз погоды в Жангизтобе
  • Монитор погоды в Жангизтобе
  • Климат города

АРХИВ ПОГОДЫ в Жангизтобе

Время (UTC), дата Ветер
(напр.,м/с)
 
Видим.   Явления Облачность Т
(С)
Тd
(С)
f
(%)
Тe
(С)
Тes
(С)
Комфортность P
(гПа)
Po
(гПа)
Тmin
(С)
Tmax
(С)
R
(мм)
R24
(мм)
S
(см)
15 23.04 З 4 н/о ясно +13.5 +5.3 58 +12 +12 1018.5 965.4 +18.4
18 23.04 З 2 н/о ясно +11.0 +5.5 69 +10 +10 1019.5 965.9 +18.4
21 23.04 З 1 н/о 8/0
[Ac cast]
+7.4 +3.5 76 +7 +7 1020.0 965.7
00 24.04 СЗ 1 50 км 8/4 1000 м
[Sc Ac und]
+10.5 +6.5 76 +10 +10 1020.8 967.1
03 24.04 СЗ 1 50 км {ливн. осадки} 8/8 1000 м
[Cb calv]
+10.8 +5.4 69 +11 +12 1022.3 968.5
06 24.04 Ю 1 50 км {ливн. осадки} 8/8 1000 м
[Cu med, cong]
+16.8 +8.5 58 +18 +21 1020.1 967.6 +7.2 0.4
09 24.04 СЗ 2 50 км 4/4 1000 м
[Cu med, cong]
+19.8 +7.5 45 +21 +28 комфорт 1018.8 966.9
12 24.04 З 3 50 км 6/3 1000 м
[Cu hum Ci fib]
+18.8 +3.2 35 +19 +20 1020.2 968.0
15 24.04 СЗ 3 н/о 4/0
[Ac lent]
+12.7 +5.3 61 +11 +11 1023.3 969.8 +20.5
18 24.04 Ю 2 н/о ясно +7.3 +4.1 80 +5 +5 1026.3 971.7 +20.5
21 24.04 штиль 0 н/о ясно +4.7 +3.5 92 +4 +4 1026.6 971.4
00 25.04 З 1 50 км ясно +4.7 +3.3 91 +3 +3 1027.0 971.8
03 25.04 С 2 50 км ясно +9.8 +3.2 63 +9 +16 1026.6 972.4
06 25.04 С 3 50 км 8/0
[Ci fib]
+12.7 +3.7 54 +12 +22 1024.9 971.3 +4.6
09 25.04 С 5 50 км 4/0
[Ci fib]
+15.4 +3.3 44 +14 +20 1023.0 970.0
12 25.04 С 5 50 км ясно +15.2 +2.4 42 +14 +15 1022.1 969.1
15 25.04 СЗ 3 н/о ясно +9.8 +1.2 55 +8 +8 1023.2 969.2 +16.2
18 25.04 ЮЗ 1 н/о ясно +3.9 +1.6 85 +2 +2 1024.4 969.2 +16.2
21 25.04 Ю 1 н/о ясно +3.0 +1.5 90 +1 +1 1023.5 968.2
00 26.04 ЮЗ 1 50 км ясно +2.7 +0.1 83 +1 +1 1023.1 967.7
03 26.04 штиль 0 50 км ясно +7.2 +1.7 68 +7 +16 опасность
простуды
1022.4 967.9
06 26.04 штиль 0 50 км ясно +18.2 +6.5 46 +18 +38 опасность
простуды
1019.3 967.0 +1.5
09 26.04 В 2 50 км ясно +22.2 +7.7 39 +23 +34 комфорт 1017.3 965.8
12 26.04 В 1 50 км ясно +23.4 +7.1 35 +24 +26 комфорт 1016.5 965.3
15 26.04 Ю 1 н/о ясно +13.5 +7.0 65 +14 +14 1019.0 965.9 +24.7
18 26.04 Ю 1 н/о ясно +10.1 +5.6 74 +10 +10 1020.2 966.4 +24.7
21 26.04 ЮВ 3 н/о ясно +8.1 +4.3 77 +6 +6 1019.2 965.1
00 27.04 ЮВ 7 50 км ясно +10.3 +5.8 74 +7 +7 1018.5 964.9
03 27.04 ЮВ 3 50 км ясно +13.3 +7.0 66 +12 +18 1018.3 965.2
06 27.04 Ю 1 50 км ясно +20.2 +8.3 46 +22 +40 комфорт 1016.8 965.0 +8.0
09 27.04 Ю 1 50 км ясно +23.4 +7.9 37 +24 +37 комфорт 1015.4 964.2
12 27.04 ЮВ 3 50 км ясно +24.1 +8.8 38 +25 +26 комфорт 1014.8 963.8
15 27.04 Ю 1 н/о ясно +17.5 +7.8 53 +19 +19 1016.3 964.1 +25.4
18 27.04 Ю 2 н/о ясно +13.3 +7.0 66 +13 +13 1017.3 964.3 +25.4
21 27.04 Ю 1 н/о ясно +10.8 +5.5 70 +11 +11 1017.8 964.3
00 28.04 Ю 1 50 км 6/0
[Ci fib]
+8.1 +4.0 75 +7 +8 1019.5 965.4
03 28.04 ЮЗ 1 50 км 6/0
[Ci fib]
+16.5 +8.2 58 +17 +25 1018.0 965.5
06 28.04 СЗ 2 50 км 8/0
[Ci fib]
+20.6 +7.9 44 +22 +35 комфорт 1016.5 964.8 +8.0
09 28.04 СЗ 3 50 км 8/3 1000 м
[Cu med, cong Ci fib]
+23.2 +6.3 34 +24 +29 комфорт 1014.6 963.4
12 28.04 СЗ 3 50 км 9/6 1000 м
[Cb calv Ci fib]
+21.9 +9.0 44 +23 +24 комфорт 1015.2 963.8
15 28.04 З 2 н/о в посл. час ливневой дождь 10/10 1000 м
[Cb calv]
+15.2 +9.7 70 +15 +15 1020.2 967.4 +24.5
18 28.04 З 3 н/о {ливн. осадки} 8/8 1000 м
[Cb calv]
+9.8 +8.0 89 +7 +7 1023.3 969.3 +24.5 0.0
21 28.04 З 3 н/о 4/4 1000 м
[Sc]
+7.7 +6.0 89 +5 +5 1025.4 970.9
00 29.04 З 3 50 км 10/10 1000 м
[Sc]
+8.1 +6.6 90 +5 +5 1026.8 972.3
03 29.04 СЗ 3 50 км 10/10 1000 м
[Sc]
+8.4 +6.9 90 +6 +6 1027.3 972.9
06 29.04 СЗ 1 50 км 10/10 1000 м
[Sc]
+8.7 +7.4 92 +8 +8 1027.5 973.1 +7.4 7
09 29.04 З 2 50 км 10/10 1000 м
[Sc]
+12.1 +7.0 71 +11 +11 1025.7 972.0
12 29.04 З 3 50 км 10/6 1000 м
[Sc Ac lent]
+14.2 +7.2 63 +13 +13 1024.4 971.2
15 29.04 Ю 1 н/о 10/10 1000 м
[Sc]
+10.0 +8.4 90 +9 +9 1025.1 971.1 +15.0
18 29.04 З 3 н/о 10/10 1000 м
[Sc]
+10.8 +3.4 60 +9 +9 1024.7 970.8 +15.0
21 29.04 З 4 н/о 8/8 1000 м
[Sc]
+9.8 +2.1 59 +7 +7 1024.4 970.3
00 30.04 ЮЗ 2 50 км 10/10 1000 м
[Sc]
+10.0 +1.8 57 +9 +9 1024.2 970.2
03 30.04 Ю 3 50 км 9/9 1000 м
[Sc]
+11.8 +4.7 62 +10 +11 1023.0 969.4
06 30.04 ЮЗ 4 50 км 9/6 1000 м
[Cu hum Ci sp]
+14.4 +5.5 55 +13 +17 1021.4 968.3 +9.7
09 30.04 ЮЗ 3 50 км 9/9 1000 м
[Cu med, cong]
+16.2 +4.8 47 +16 +17 1018.9 966.3

 

Местоположение метеостанции Жангизтобе (Восточно-Казахстанская область, Казахстан): широта 49.22 долгота 81.22 высота над уровнем моря 455 м.

В архиве по умолчанию представлена погода в Жангизтобе за последнюю неделю. Архивные данные за месяц целиком и за предыдущие месяцы, начиная с января 2011 года, Вы можете получить, выбрав интересующий диапазон дат из раскрывающегося списка и нажав кнопку "Ввод!".

Внимание! Время в таблицах - всемирное. Для получения местного времени необходимо прибавить поправку, которая в Жангизтобе равна 6 ч.

Смотрите также архив погоды в соседних городах и на ближайших метеорологических станциях:

Погода в Кентерлау (Восточно-Казахстанская область, Казахстан) (29 км)
Погода в Шаре (Восточно-Казахстанская область, Казахстан) (42 км)
Погода в Шалабае (Восточно-Казахстанская область, Казахстан) (57 км)
Погода в Кокпектах (Восточно-Казахстанская область, Казахстан) (99 км)
Погода в Кайсенова (Восточно-Казахстанская область, Казахстан) (117 км)
Погода в Таврии (Восточно-Казахстанская область, Казахстан) (121 км)
Погода в Первомайском (Восточно-Казахстанская область, Казахстан) (130 км)
Погода в Шульбинске (Восточно-Казахстанская область, Казахстан) (130 км)
Погода в Глубоком (Восточно-Казахстанская область, Казахстан) (130 км)
Погода в Усть-Каменогорске (Восточно-Казахстанская область, Казахстан) (131 км)

Пояснения к столбцам:

Ветер - указаны скорость ветра в м/с - средняя за 10 мин, порывы в срок и между сроками (в фигурных скобках) и направление, откуда дует ветер: С - северный, СВ - северо-восточный, В - восточный, ЮВ - юго-восточный, Ю - южный, ЮЗ - юго-западный, З - западный, СЗ - северо-западный.
Видимость - горизонтальная дальность видимости в метрах или километрах. При видимости от 1 до 10 км при отсутствии осадков обычно наблюдается дымка, при ухудшении видимости до 1 км и менее - туман. В сухую погоду видимость может ухудшаться дымом, пылью или мглою.
Явления - указаны атмосферные явления, наблюдавшиеся в срок или в последний час перед сроком; фигурными скобками обозначены явления, наблюдавшиеся между сроками (за 1-3 часа до срока); квадратными скобками обозначены град или гололедные отложения с указанием их диаметра в мм.
Облачность - указаны через наклонную черту общая и нижняя облачность в баллах и высота нижней границы облаков в метрах; квадратными скобками обозначены формы облаков: Ci - перистые, Cs - перисто-слоистые, Cc - перисто-кучевые, Ac - высококучевые, As - высокослоистые, Sc - слоисто-кучевые, Ns - слоисто-дождевые, Cu - кучевые, Cb - кучево-дождевые. Подробнее классификацию облаков см. в Атласе облаков (PDF).
T - Температура воздуха - температура, измеренная на высоте 2 м над землей.
Td - Температура точки росы - температура, при понижении до которой содержащийся в воздухе водяной пар достигнет насыщения.
f - Относительная влажность воздуха - влажноcть воздуха, измеренная на высоте 2 м над землей.
Te - Эффективная температура - температура, которую ощущает одетый по сезону человек в тени. Характеристика душности погоды. При расчете учитывается влияние влажности воздуха и скорости ветра на теплоощущения человека.
Tes - Эффективная температура на солнце - температура, которую ощущает человек, с поправкой на солнечный нагрев. Характеристика знойности погоды. Зависит от высоты солнца над горизонтом, облачности и скорости ветра. Ночью, в пасмурную погоду, а также при ветре 12 м/с и более поправка равна нулю.
P - Атмосферное давление - приведенное к уровню моря атмосферное давление.
Po - Атмосферное давление - измеренное на уровне метеостанции атмосферное давление.
Tmin - Минимальная температура - минимум температуры воздуха на высоте 2 м над землей.
Tmax - Максимальная температура - максимум температуры воздуха на высоте 2 м над землей.
R - Количество осадков - Количество выпавших осадков за период времени, мм. При наведении курсора мыши на число - период времени, за который выпало указанное количество осадков.
R24 - Количество осадков - Количество выпавших осадков за 24 часа, мм.
S - Снежный покров - Высота снежного покрова, см. При наведении курсора мыши на число - состояние снежного покрова и степень покрытия местности в баллах.